Location: Bilsen
(53.7722°N, 9.8765°E)
Time: 23:16:25
(UTC+00:00)

Cosmos-2242 - Pass Details

Date: 18 February 2020
Orbit: 592 x 617 km, 82.5° (Epoch: 05 April)

Event Time Altitude Azimuth Distance (km) Brightness Sun altitude
Exits shadow 04:41:29 24° 312° (NW) 1,248 4.2 -17.3°
Drops below altitude 10° 04:44:20 10° 351° (N) 1,949 5.6 -16.9°
Sets 04:46:52 0° 5° (N) 2,853 6.6 -16.5°
